User: anonymous   Login
Location: Cape Cod Imaging Station
(41.7417°N, 70.1583°W)
Time: 20:04:12
(UTC-05:00)
Language:

Cosmos 1508 Rocket - Orbit

View from above orbital plane
View from above orbital plane
View from above satellite
View from above satellite

Ground track
Ground track

The orbit data is extracted from the following two-line orbital elements,

1 14484U 83111B   14351.51659382  .00059665  00000-0  64797-3 0  7319
2 14484 082.8323 150.0465 0164838 331.0483 114.1652 15.48237509600743
Epoch (UTC): 17 December 2014 12:23:53
Eccentricity: 0.0164838
inclination: 82.8323°
perigee height: 310 km
apogee height: 534 km
right ascension of ascending node: 150.0465°
argument of perigee: 331.0483°
revolutions per day: 15.48237509
mean anomaly at epoch: 114.1652°
orbit number at epoch: 60074

The dashed part of the orbit path shows where the satellite is in the earth's shadow,  

DLR